Location: Batang Balui
(2.7000°N, 113.7833°E)
Time: 04:36:23
(UTC+00:00)

O/OREOS (USA 219) - Pass Details

Date: 28 March 2023
Orbit: 621 x 646 km, 72.0° (Epoch: 22 May)

Event Time Altitude Azimuth Distance (km) Brightness Sun altitude
Exits shadow 20:11:41 21° 51° (NE) 1,456 ? -34.3°
Drops below altitude 10° 20:13:24 10° 38° (NE) 2,033 ? -33.9°
Sets 20:15:48 0° 29° (NNE) 2,938 ? -33.3°
